[[{"header":{"parameterUnit":"m.s-1","parameterCategory":2,"la1":30.2991,"la2":30.254,"lo1":-89.0895,"lo2":-89.0444,"dy":0.0017,"dx":0.0017,"nx":28,"ny":28,"refTime":"2024-03-28T03:00:00:Z","depth":"0","parameterNumber":2,"parameterNumberName":"U-component_of_CURRENTS"},"data":[0,0,0,0,0,0,0,0,0,0,0,0,0,0,0,0,0,0,0,0,0,0,0,0,0,0,0,0,0,0,0,0,0,0,0,0,0,0,0,0,0,0,0,0,0,0,0,0,0,0,0,0,0,0,0,0,0,0,0.2514,0.2514,0,0.2506,0.2506,0.2506,0.2489,0.2489,0.2488,0.2488,0.2469,0.2468,0.2468,0,0,0,0,0,0,0,0,0,0,0,0,0,0.2564,0.2563,0.2514,0.2514,0.2514,0.2506,0.2506,0.2506,0.2489,0.2489,0.2488,0.2488,0.2469,0.2468,0.2468,0,0,0,0,0,0,0,0,0,0,0,0,0,0.2547,0.2562,0.2514,0.2506,0.2505,0.2506,0.2506,0.2506,0.2489,0.2489,0.2488,0.2488,0.2469,0.2468,0.2468,0.2472,0,0,0.2466,0.2466,0,0,0,0,0,0,0,0,0.2548,0.2545,0.2507,0.2506,0.2506,0.2499,0.2516,0.2494,0.2489,0.2494,0.2488,0.2488,0.2479,0.2477,0.2475,0.2471,0.247,0.2466,0.2466,0.2466,0.2466,0,0,0,0,0,0,0,0.2549,0.2545,0.251,0.2507,0.2506,0.2519,0.2516,0.2512,0.2487,0.2493,0.2492,0.2493,0.2478,0.2476,0.2475,0.247,0.2466,0.2466,0.2466,0.2466,0.2517,0.2518,0,0,0,0,0,0,0.255,0.2546,0.251,0.251,0.2527,0.2518,0.2515,0.2501,0.2487,0.2486,0.2494,0.2493,0.2477,0.2475,0.2474,0.2514,0.2466,0.2465,0.2465,0.2515,0.2517,0.2519,0,0,0,0,0,0,0.255,0.2546,0.2511,0.253,0.2526,0.2518,0.2502,0.2501,0.2502,0.2488,0.2486,0.2497,0.2476,0.2474,0.2484,0.2512,0.2465,0.2465,0.2513,0.2516,0.2518,0.2571,0,0,0,0,0,0,0.2552,0.2546,0.2542,0.2529,0.2525,0.2515,0.2503,0.2501,0.2503,0.2502,0.249,0.2488,0.2476,0.2485,0.2484,0.251,0.2465,0.2511,0.2514,0.2517,0.2567,0.2575,0.2582,0,0,0,0,0,0.2553,0.2542,0.2541,0.2537,0.2517,0.2516,0.2515,0.2508,0.2504,0.2507,0.2506,0.2488,0.2504,0.2486,0.2484,0.2511,0.2509,0.2513,0.2517,0.2564,0.2574,0.2582,0,0,0,0,0,0,0.2559,0.254,0.2538,0.2521,0.2523,0.2514,0.2516,0.2513,0.2515,0.2515,0.2501,0.2499,0.2522,0.2511,0.2491,0.2537,0.2507,0.251,0.2544,0.2552,0.256,0.2601,0.2464,0,0,0,0,0,0.256,0.2546,0.2539,0.2528,0.2531,0.2527,0.2527,0.2524,0.2522,0.2522,0.2514,0.2518,0.2536,0.2538,0.2543,0.2561,0.261,0.2581,0.2588,0.2594,0.2629,0.2745,0.2767,0.2531,0.2531,0.2531,0,0,0.2558,0.2548,0.2539,0.253,0.253,0.2541,0.2526,0.2528,0.2547,0.2521,0.2538,0.2539,0.2548,0.2574,0.2583,0.2565,0.2682,0.2599,0.2604,0.2636,0.2752,0.2775,0.2796,0.2533,0.2533,0.2532,0,0,0.2553,0.2541,0.2535,0.2541,0.2546,0.2551,0.2555,0.2551,0.2561,0.2575,0.2577,0.2606,0.2599,0.2632,0.2645,0.2698,0.2719,0.2686,0.2753,0.2865,0.2886,0.2905,0.2978,0.3003,0.2687,0.2688,0.2688,0,0.2556,0.2547,0.2536,0.2542,0.2558,0.2559,0.2577,0.2588,0.259,0.262,0.2587,0.2656,0.2641,0.273,0.2737,0.2718,0.2773,0.2714,0.2877,0.2897,0.2917,0.2986,0.3014,0.2691,0.269,0.269,0.269,0,0.2551,0.2555,0.2556,0.2567,0.2584,0.2597,0.2619,0.2642,0.265,0.267,0.2746,0.275,0.2804,0.2795,0.2773,0.2902,0.2893,0.2875,0.2858,0.2944,0.3011,0.3039,0.2695,0.2694,0.2693,0.2692,0,0,0.2526,0.2549,0.255,0.258,0.2603,0.2622,0.2668,0.2725,0.2788,0.2796,0.2894,0.2915,0.2937,0.2957,0.2956,0.3033,0.3179,0.3007,0.3011,0.3084,0.3416,0.3323,0.3344,0.3195,0.32,0.3204,0.3401,0,0.2532,0.2561,0.2569,0.262,0.2648,0.2681,0.2734,0.2789,0.2838,0.2927,0.2979,0.3057,0.2997,0.3039,0.3113,0.3172,0.3259,0.3126,0.3318,0.3324,0.3237,0.3376,0.3181,0.3335,0.3429,0.3433,0.3436,0,0.2524,0.2554,0.26,0.268,0.2697,0.273,0.2849,0.2896,0.3018,0.3061,0.3162,0.3205,0.3329,0.3262,0.3447,0.3367,0.3407,0.344,0.3448,0.3372,0.3285,0.3268,0.3381,0.3287,0.3479,0.3476,0.3473,0,0.253,0.258,0.2628,0.2648,0.273,0.2776,0.2829,0.2939,0.302,0.317,0.3258,0.3394,0.3484,0.358,0.3616,0.3562,0.3811,0.3745,0.371,0.3702,0.3581,0.3553,0.3635,0.3909,0.3909,0.3908,0.3908,0,0.254,0.2583,0.2638,0.2668,0.2768,0.2801,0.2924,0.3,0.3133,0.3254,0.3338,0.3467,0.3573,0.37,0.3719,0.3805,0.3905,0.3774,0.3774,0.3587,0.3559,0.3504,0.3448,0.3916,0.3914,0.3913,0.3911,0,0.2568,0.2577,0.2663,0.2748,0.2775,0.2857,0.2983,0.3078,0.3183,0.3355,0.3416,0.3578,0.3728,0.3815,0.3973,0.3934,0.3905,0.4018,0.3766,0.3733,0.3567,0.352,0.3515,0.3418,0.4034,0.4033,0.4033,0,0.2603,0.2641,0.274,0.2794,0.284,0.2941,0.3016,0.3109,0.3204,0.3411,0.3501,0.3689,0.3793,0.398,0.3957,0.4019,0.3904,0.3874,0.373,0.3582,0.3533,0.3389,0.3297,0.359,0.3586,0.3582,0.3579,0,0.2724,0.2748,0.2821,0.2896,0.2969,0.3053,0.3148,0.3211,0.3322,0.3433,0.3559,0.3652,0.3803,0.3764,0.3838,0.384,0.366,0.3803,0.3744,0.3289,0.3051,0.2946,0.3413,0.3549,0.3552,0.3554,0.3556,0.3557,0.2851,0.2909,0.2963,0.3024,0.3088,0.3116,0.3125,0.3201,0.3278,0.3337,0.3489,0.3517,0.356,0.3612,0.3601,0.345,0.346,0.3328,0.3317,0.3212,0.3012,0.3394,0.346,0.3462,0.3464,0.3466,0.3468,0,0.2994,0.3009,0.3082,0.3107,0.3118,0.3131,0.3172,0.3114,0.3101,0.3194,0.3222,0.3218,0.3176,0.3198,0.311,0.2985,0.2837,0.2909,0.2674,0.2635,0.3071,0.2943,0.2784,0.2784,0.2784,0.2784,0.2784,0.2784,0.3083,0.3125,0.3096,0.3089,0.3082,0.2995,0.2957,0.2882,0.2877,0.2793,0.2756,0.2787,0.2915,0.2864,0.2725,0.2657,0.2467,0.2317,0.2373,0.2677,0.2715,0.275,0.2619,0.2395,0.2394,0.1791,0.1786,0.1783]},{"header":{"parameterUnit":"m.s-1","parameterCategory":2,"la1":30.2991,"la2":30.254,"lo1":-89.0895,"lo2":-89.0444,"dy":0.0017,"dx":0.0017,"nx":28,"ny":28,"refTime":"2024-03-28T03:00:00:Z","depth":"0","parameterNumber":3,"parameterNumberName":"V-component_of_CURRENTS"},"data":[0,0,0,0,0,0,0,0,0,0,0,0,0,0,0,0,0,0,0,0,0,0,0,0,0,0,0,0,0,0,0,0,0,0,0,0,0,0,0,0,0,0,0,0,0,0,0,0,0,0,0,0,0,0,0,0,0,0,0.0096,0.0096,0,0.0069,0.0068,0.0068,0.0034,0.0034,0.0034,0.0033,-0.002,-0.0021,-0.0022,0,0,0,0,0,0,0,0,0,0,0,0,0,0.0057,0.0058,0.0096,0.0096,0.0095,0.0069,0.0068,0.0067,0.0034,0.0034,0.0034,0.0033,-0.0019,-0.002,-0.0022,0,0,0,0,0,0,0,0,0,0,0,0,0,0.0054,0.0058,0.0096,0.0077,0.0075,0.0069,0.0068,0.0067,0.0035,0.0034,0.0034,0.0033,-0.0019,-0.002,-0.0022,-0.0022,0,0,-0.0027,-0.0028,0,0,0,0,0,0,0,0,0.0055,0.0056,0.008,0.0078,0.0076,0.0056,0.0035,0.0037,0.0035,0.0048,0.0033,0.0033,0.0005,0.0001,-0.0005,-0.0024,-0.0026,-0.0027,-0.0028,-0.0029,-0.0029,0,0,0,0,0,0,0,0.0055,0.0056,0.0083,0.008,0.0078,0.0049,0.0048,0.0035,0.0028,0.0047,0.0045,0.0045,0.0003,-0.0003,-0.0006,-0.0027,-0.0027,-0.0028,-0.0029,-0.003,-0.0045,-0.0045,0,0,0,0,0,0,0.0066,0.0057,0.0084,0.0082,0.0066,0.005,0.005,0.0061,0.0028,0.0024,0.0045,0.0044,-0.0,-0.0004,-0.0008,0.0008,-0.0029,-0.003,-0.0031,-0.0046,-0.0045,-0.0045,0,0,0,0,0,0,0.0066,0.0069,0.0085,0.0069,0.007,0.0052,0.0065,0.0061,0.0056,0.0028,0.0022,0.0045,-0.0001,-0.0006,-0.0016,0.0005,-0.0031,-0.0032,-0.0047,-0.0046,-0.0045,0.003,0,0,0,0,0,0,0.0065,0.007,0.0078,0.0071,0.0071,0.0091,0.0066,0.0061,0.0058,0.0055,0.0026,0.002,-0.0002,-0.0013,-0.0018,0.0002,-0.0034,-0.0047,-0.0046,-0.0045,0.0026,0.0033,0.0038,0,0,0,0,0,0.0064,0.0082,0.0079,0.0081,0.0085,0.0092,0.0089,0.0073,0.0058,0.0064,0.0041,0.0021,-0.001,-0.0014,-0.0019,0.0001,-0.0048,-0.0047,-0.0045,0.0024,0.0032,0.0038,0,0,0,0,0,0,0.0066,0.008,0.0076,0.0097,0.0098,0.0087,0.009,0.0078,0.0064,0.0057,0.0027,0.0021,0.0018,-0.0002,-0.0006,-0.0002,-0.0032,-0.0031,0.0023,0.003,0.0036,0.0057,-0.0035,0,0,0,0,0,0.0073,0.0092,0.0096,0.0112,0.0116,0.0103,0.0102,0.0092,0.008,0.0073,0.0054,0.0033,0.002,0.0016,-0.0003,0.0003,-0.0004,0.0011,0.0017,0.0023,0.0036,0.0047,0.0056,-0.004,-0.004,-0.004,0,0,0.0077,0.0088,0.0097,0.0113,0.0112,0.0131,0.0101,0.0106,0.0119,0.007,0.0078,0.005,0.0024,0.0028,0.0026,0.0015,0.0045,0.0024,0.0029,0.004,0.0049,0.0059,0.0067,-0.004,-0.004,-0.004,0,0,0.0102,0.0108,0.0135,0.0143,0.015,0.0147,0.0152,0.0147,0.0142,0.0144,0.0113,0.0103,0.0081,0.0074,0.0065,0.0094,0.0073,0.0083,0.0138,0.0149,0.0157,0.0165,0.0169,0.0176,0.0092,0.0092,0.0092,0,0.0104,0.0145,0.0141,0.0169,0.0186,0.0161,0.0195,0.0187,0.0176,0.0189,0.0156,0.0144,0.0108,0.0134,0.0131,0.0111,0.0109,0.0115,0.0159,0.0166,0.0172,0.0175,0.0182,0.0096,0.0095,0.0095,0.0094,0,0.0152,0.0183,0.02,0.0235,0.0249,0.0272,0.0271,0.0279,0.0266,0.0263,0.0278,0.0233,0.0236,0.0213,0.0174,0.0206,0.0187,0.0163,0.0146,0.0187,0.0186,0.0192,0.0101,0.01,0.0099,0.0098,0,0,0.0169,0.0225,0.0232,0.0273,0.029,0.0316,0.0339,0.0372,0.0413,0.0378,0.0437,0.038,0.0362,0.0351,0.0309,0.0299,0.032,0.0248,0.0247,0.0262,0.0343,0.0293,0.0295,0.0304,0.0306,0.0307,0.0325,0,0.0212,0.029,0.0301,0.0377,0.0424,0.0421,0.0459,0.0479,0.0485,0.053,0.049,0.0517,0.0416,0.0429,0.0401,0.035,0.0339,0.0317,0.0292,0.0292,0.0251,0.0301,0.0278,0.0289,0.0331,0.0332,0.0332,0,0.0263,0.0314,0.0399,0.0484,0.0505,0.0543,0.0622,0.0651,0.0689,0.0696,0.0707,0.0682,0.0673,0.058,0.0519,0.0511,0.0431,0.0374,0.0374,0.0308,0.0254,0.0253,0.0298,0.0167,0.0341,0.0341,0.034,0,0.0306,0.0388,0.0468,0.0493,0.0572,0.0619,0.066,0.0708,0.0764,0.0817,0.0872,0.0843,0.0853,0.0761,0.0612,0.0582,0.0537,0.0492,0.0375,0.0371,0.0336,0.0326,0.0261,0.0452,0.0452,0.0452,0.0452,0,0.0361,0.0425,0.0501,0.0548,0.066,0.0688,0.0803,0.0836,0.0913,0.101,0.097,0.104,0.0894,0.0842,0.0692,0.0555,0.0604,0.0402,0.038,0.0359,0.0351,0.0222,0.0149,0.0453,0.0452,0.0452,0.0452,0,0.0404,0.0445,0.0549,0.0647,0.0687,0.077,0.0895,0.0977,0.1036,0.1167,0.1198,0.1202,0.1147,0.0981,0.0838,0.0671,0.0456,0.0467,0.0443,0.0418,0.0187,0.0119,0.0028,-0.0028,0.0376,0.0375,0.0374,0,0.0434,0.0491,0.0623,0.069,0.0742,0.0861,0.0946,0.1031,0.1126,0.1271,0.1348,0.1344,0.1351,0.1122,0.0836,0.0598,0.0449,0.0399,0.0328,0.0186,0.0096,0.0037,-0.0007,0.0315,0.0314,0.0313,0.0312,0,0.0492,0.0537,0.0626,0.0759,0.0864,0.0987,0.1117,0.1212,0.1329,0.145,0.1579,0.1604,0.1402,0.1152,0.0804,0.0623,0.0304,0.037,0.0241,0.0061,-0.0021,-0.0089,0.0283,0.0303,0.0304,0.0304,0.0305,0.0305,0.0534,0.0604,0.0709,0.0836,0.0953,0.1088,0.1194,0.1338,0.1502,0.1674,0.1706,0.1761,0.1418,0.0957,0.0695,0.0222,0.0239,0.0066,0.0004,-0.0035,-0.0119,0.0224,0.02,0.02,0.0201,0.0201,0.0201,0,0.0579,0.0654,0.0772,0.0922,0.1038,0.1096,0.1288,0.1392,0.158,0.1743,0.1842,0.1712,0.1285,0.0866,0.0233,-0.0099,-0.0208,-0.0259,-0.0341,-0.0362,-0.0035,-0.007,-0.0176,-0.0176,-0.0176,-0.0176,-0.0176,-0.0176,0.0606,0.0712,0.0769,0.0948,0.1055,0.1205,0.131,0.1477,0.1619,0.1786,0.1838,0.1852,0.1554,0.0477,-0.0252,-0.0418,-0.0599,-0.067,-0.0739,-0.0525,-0.0499,-0.0475,-0.0525,-0.0725,-0.0725,-0.1042,-0.1045,-0.1048]}],[{"header":{"parameterUnit":"m.s-1","parameterCategory":2,"la1":30.2991,"la2":30.254,"lo1":-89.0895,"lo2":-89.0444,"dy":0.0017,"dx":0.0017,"nx":28,"ny":28,"refTime":"2024-03-28T03:00:00:Z","depth":"2","parameterNumber":2,"parameterNumberName":"U-component_of_CURRENTS"},"data":[0,0,0,0,0,0,0,0,0,0,0,0,0,0,0,0,0,0,0,0,0,0,0,0,0,0,0,0,0,0,0,0,0,0,0,0,0,0,0,0,0,0,0,0,0,0,0,0,0,0,0,0,0,0,0,0,0,0,0.2219,0.2219,0,0.2225,0.2225,0.2225,0.2218,0.2217,0.2217,0.2217,0.2213,0.2213,0.2213,0,0,0,0,0,0,0,0,0,0,0,0,0,0.2228,0.2228,0.2219,0.2219,0.2219,0.2225,0.2225,0.2225,0.2218,0.2217,0.2217,0.2217,0.2213,0.2213,0.2213,0,0,0,0,0,0,0,0,0,0,0,0,0,0.2227,0.2228,0.2219,0.2217,0.2217,0.2225,0.2225,0.2225,0.2218,0.2217,0.2217,0.2217,0.2213,0.2213,0.2213,0.2217,0,0,0.2213,0.2213,0,0,0,0,0,0,0,0,0.2227,0.2226,0.2217,0.2217,0.2217,0.2222,0.2227,0.2222,0.2218,0.2216,0.2217,0.2217,0.2216,0.2216,0.2215,0.2217,0.2217,0.2213,0.2213,0.2213,0.2213,0,0,0,0,0,0,0,0.2227,0.2226,0.222,0.2217,0.2218,0.2226,0.2225,0.2226,0.2216,0.2216,0.2216,0.2219,0.2216,0.2215,0.2215,0.2217,0.2213,0.2213,0.2213,0.2213,0.2267,0.2268,0,0,0,0,0,0,0.2228,0.2226,0.2219,0.222,0.2223,0.2226,0.2225,0.2219,0.2216,0.2216,0.2219,0.2219,0.2216,0.2215,0.2215,0.2254,0.2213,0.2213,0.2213,0.2266,0.2267,0.2269,0,0,0,0,0,0,0.2228,0.2227,0.2219,0.2225,0.2225,0.2226,0.222,0.222,0.2227,0.2219,0.2218,0.2228,0.2215,0.2215,0.223,0.2252,0.2213,0.2213,0.2264,0.2266,0.2268,0.231,0,0,0,0,0,0,0.2228,0.2226,0.2228,0.2225,0.2225,0.223,0.222,0.222,0.223,0.2229,0.2226,0.2225,0.2215,0.223,0.223,0.2252,0.2213,0.2262,0.2265,0.2267,0.2307,0.2313,0.2319,0,0,0,0,0,0.2228,0.2227,0.2228,0.2228,0.2224,0.223,0.2231,0.2231,0.223,0.2236,0.224,0.2225,0.2247,0.2231,0.223,0.2253,0.2261,0.2264,0.2267,0.2304,0.2312,0.2318,0,0,0,0,0,0,0.223,0.2226,0.2227,0.2224,0.2232,0.223,0.2236,0.2238,0.2245,0.2248,0.2238,0.2238,0.2261,0.2254,0.2237,0.2279,0.2254,0.2257,0.2282,0.2289,0.2295,0.2319,0.2213,0,0,0,0,0,0.2233,0.223,0.2232,0.2232,0.2237,0.2241,0.2245,0.2247,0.2251,0.2254,0.2252,0.2258,0.2274,0.2278,0.2284,0.2303,0.2327,0.232,0.2326,0.2331,0.2352,0.2415,0.2429,0.2279,0.2279,0.2279,0,0,0.2232,0.2232,0.223,0.2233,0.2238,0.225,0.2242,0.2253,0.227,0.2253,0.2273,0.2278,0.2284,0.2308,0.2318,0.2304,0.2385,0.2335,0.2339,0.2358,0.242,0.2435,0.2448,0.2282,0.2281,0.2281,0,0,0.2232,0.2233,0.2234,0.2243,0.2256,0.2263,0.2269,0.2275,0.2286,0.2305,0.2307,0.2332,0.2335,0.2356,0.2365,0.2411,0.2416,0.2407,0.2455,0.2515,0.2528,0.254,0.2582,0.2598,0.2409,0.2409,0.2409,0,0.2236,0.2236,0.2237,0.2247,0.2261,0.2271,0.2286,0.2301,0.2312,0.2334,0.2317,0.2367,0.2365,0.2422,0.2437,0.2426,0.2455,0.2422,0.2524,0.2536,0.2548,0.2588,0.2604,0.2411,0.2411,0.2411,0.2411,0,0.2236,0.2245,0.225,0.2266,0.2283,0.2298,0.2321,0.2344,0.2357,0.2374,0.2427,0.2435,0.2473,0.2472,0.2466,0.2549,0.2541,0.2524,0.2505,0.2565,0.2604,0.262,0.2415,0.2414,0.2413,0.2413,0,0,0.2218,0.2245,0.2248,0.2269,0.2297,0.2313,0.2353,0.2398,0.2444,0.2456,0.2518,0.2545,0.2563,0.2578,0.2581,0.2626,0.2721,0.2613,0.2615,0.2654,0.2853,0.2763,0.2772,0.2723,0.2726,0.2729,0.2844,0,0.2222,0.2246,0.226,0.2298,0.2319,0.2352,0.2393,0.2438,0.248,0.2541,0.2574,0.263,0.26,0.2633,0.2676,0.2721,0.2768,0.2691,0.279,0.2793,0.2706,0.2789,0.2554,0.263,0.286,0.2863,0.2865,0,0.2216,0.2239,0.2271,0.2331,0.2345,0.2374,0.2461,0.2501,0.2589,0.2624,0.269,0.2721,0.2806,0.2764,0.2879,0.2834,0.2855,0.2873,0.2877,0.2795,0.2734,0.261,0.2651,0.2892,0.289,0.2888,0.2886,0,0.2204,0.2249,0.228,0.2296,0.236,0.2398,0.2444,0.2529,0.2587,0.2696,0.2758,0.2841,0.2906,0.2956,0.2985,0.2955,0.3095,0.3056,0.2994,0.2987,0.2808,0.2779,0.3142,0.3142,0.3142,0.3141,0.3141,0,0.22,0.2226,0.2282,0.2299,0.2364,0.2407,0.2494,0.2554,0.2654,0.2729,0.2811,0.2883,0.2962,0.3036,0.3043,0.3072,0.3148,0.3031,0.3024,0.2813,0.2785,0.3023,0.3007,0.3145,0.3145,0.3144,0.3143,0,0.2188,0.221,0.2258,0.2331,0.2358,0.2411,0.2519,0.2576,0.2682,0.2791,0.2835,0.2957,0.3049,0.3103,0.319,0.3149,0.3179,0.316,0.2896,0.2855,0.3018,0.3003,0.3132,0.313,0.3129,0.3127,0.3126,0,0.2187,0.2209,0.2284,0.2311,0.2347,0.2428,0.2475,0.2579,0.2634,0.2815,0.2851,0.2996,0.3045,0.3143,0.3103,0.3116,0.3166,0.2899,0.2794,0.3044,0.3024,0.3012,0.3,0.2575,0.257,0.2565,0.2561,0,0.2203,0.2227,0.2269,0.2322,0.2369,0.2419,0.2491,0.2534,0.265,0.2729,0.2819,0.2885,0.2984,0.2879,0.2902,0.2868,0.2878,0.2806,0.3169,0.2602,0.2524,0.2503,0.2508,0.2521,0.2525,0.2528,0.253,0.2532,0.2221,0.2255,0.2297,0.2342,0.238,0.2385,0.2385,0.2441,0.2491,0.256,0.2685,0.2694,0.272,0.2628,0.2542,0.2479,0.2673,0.2552,0.2564,0.2581,0.2484,0.2407,0.2363,0.2366,0.2369,0.2371,0.2373,0,0.224,0.2267,0.2309,0.2313,0.2288,0.2346,0.2366,0.2315,0.2297,0.2387,0.2427,0.2251,0.2192,0.222,0.2058,0.2049,0.201,0.1969,0.1896,0.1939,0.1977,0.1846,0.1558,0.1555,0.1552,0.155,0,0,0.2252,0.2261,0.227,0.2208,0.2211,0.2128,0.2116,0.206,0.2065,0.2012,0.199,0.2152,0.2192,0.1862,0.1806,0.1655,0.1785,0.1592,0.2255,0.2216,0.225,0.2331,0.218,0,0,0,0,0]},{"header":{"parameterUnit":"m.s-1","parameterCategory":2,"la1":30.2991,"la2":30.254,"lo1":-89.0895,"lo2":-89.0444,"dy":0.0017,"dx":0.0017,"nx":28,"ny":28,"refTime":"2024-03-28T03:00:00:Z","depth":"2","parameterNumber":3,"parameterNumberName":"V-component_of_CURRENTS"},"data":[0,0,0,0,0,0,0,0,0,0,0,0,0,0,0,0,0,0,0,0,0,0,0,0,0,0,0,0,0,0,0,0,0,0,0,0,0,0,0,0,0,0,0,0,0,0,0,0,0,0,0,0,0,0,0,0,0,0,0.0188,0.0187,0,0.0159,0.0158,0.0158,0.0134,0.0134,0.0134,0.0134,0.0088,0.0087,0.0086,0,0,0,0,0,0,0,0,0,0,0,0,0,0.0168,0.0169,0.0188,0.0187,0.0187,0.0159,0.0158,0.0158,0.0134,0.0134,0.0134,0.0134,0.0089,0.0088,0.0086,0,0,0,0,0,0,0,0,0,0,0,0,0,0.0161,0.0169,0.0188,0.0173,0.0171,0.0159,0.0158,0.0158,0.0134,0.0134,0.0134,0.0134,0.0089,0.0088,0.0086,0.008,0,0,0.0081,0.008,0,0,0,0,0,0,0,0,0.0161,0.0161,0.0175,0.0174,0.0172,0.0151,0.0135,0.0131,0.0134,0.0147,0.0134,0.0134,0.0109,0.0106,0.0099,0.0078,0.0076,0.0081,0.008,0.0079,0.0079,0,0,0,0,0,0,0,0.0162,0.0162,0.0175,0.0175,0.0173,0.0149,0.0148,0.0134,0.0128,0.0146,0.0144,0.0143,0.0108,0.0101,0.0098,0.0075,0.0081,0.008,0.0079,0.0078,0.0056,0.0056,0,0,0,0,0,0,0.0171,0.0163,0.0176,0.0174,0.0168,0.015,0.0149,0.0157,0.0129,0.0125,0.0143,0.0142,0.0104,0.01,0.0096,0.0105,0.0079,0.0078,0.0077,0.0055,0.0056,0.0056,0,0,0,0,0,0,0.0171,0.0173,0.0177,0.0168,0.0167,0.0151,0.016,0.0157,0.0152,0.0127,0.0122,0.0143,0.0103,0.0098,0.0089,0.0103,0.0077,0.0076,0.0055,0.0055,0.0056,0.0112,0,0,0,0,0,0,0.0171,0.0173,0.0179,0.0169,0.0168,0.0178,0.016,0.0156,0.0152,0.0151,0.0126,0.0121,0.0103,0.0091,0.0087,0.01,0.0074,0.0054,0.0055,0.0056,0.0109,0.0114,0.0118,0,0,0,0,0,0.017,0.0181,0.0179,0.0181,0.0178,0.0179,0.0176,0.0162,0.0153,0.0156,0.0138,0.0122,0.0093,0.009,0.0085,0.0098,0.0054,0.0055,0.0056,0.0108,0.0113,0.0118,0,0,0,0,0,0,0.017,0.0179,0.0177,0.0189,0.0188,0.0175,0.0176,0.0166,0.0154,0.015,0.0126,0.012,0.0115,0.0098,0.0096,0.0093,0.0071,0.0071,0.0112,0.0117,0.0122,0.014,0.0073,0,0,0,0,0,0.0175,0.0189,0.0189,0.0198,0.0201,0.0189,0.0186,0.0178,0.0167,0.0162,0.0146,0.0127,0.0114,0.011,0.0093,0.0093,0.0072,0.0097,0.0102,0.0106,0.0117,0.0097,0.0101,0.0059,0.0059,0.0059,0,0,0.0176,0.0184,0.019,0.0199,0.0197,0.021,0.0187,0.0188,0.0198,0.0159,0.0164,0.014,0.0116,0.0115,0.0112,0.0104,0.0105,0.0107,0.011,0.012,0.0098,0.0103,0.0106,0.0059,0.0059,0.0059,0,0,0.0191,0.0195,0.0214,0.022,0.0224,0.0221,0.0225,0.0218,0.0215,0.0214,0.0189,0.0177,0.0157,0.0147,0.0139,0.0157,0.0126,0.0149,0.0192,0.0173,0.0176,0.0179,0.0153,0.0153,0.0156,0.0156,0.0156,0,0.019,0.0221,0.0217,0.0239,0.0252,0.0232,0.0258,0.025,0.0239,0.0246,0.0223,0.0201,0.0176,0.0183,0.0187,0.0169,0.0149,0.0175,0.0179,0.0182,0.0184,0.0156,0.0156,0.0159,0.0158,0.0158,0.0158,0,0.0224,0.0248,0.026,0.0288,0.0298,0.0314,0.0314,0.0317,0.0308,0.0302,0.0301,0.0263,0.0257,0.0241,0.0219,0.0226,0.0203,0.0184,0.0169,0.0191,0.0161,0.0159,0.0163,0.0162,0.0161,0.016,0,0,0.0229,0.0277,0.0282,0.0315,0.033,0.0349,0.0365,0.0385,0.041,0.0379,0.0405,0.0367,0.0347,0.0335,0.0302,0.0281,0.0268,0.0243,0.0241,0.0223,0.022,0.018,0.0174,0.0249,0.0249,0.0249,0.0192,0,0.0259,0.0322,0.0333,0.0393,0.0429,0.0427,0.0453,0.0463,0.0463,0.0479,0.0436,0.0443,0.0383,0.0385,0.0353,0.0296,0.0267,0.0285,0.0197,0.0194,0.016,0.0172,0.0198,0.0148,0.019,0.019,0.0189,0,0.0295,0.0338,0.0406,0.0472,0.0488,0.0518,0.0572,0.0592,0.0598,0.0595,0.0584,0.055,0.0523,0.0464,0.0376,0.039,0.0312,0.0254,0.0251,0.0196,0.0151,0.0132,0.0143,0.0186,0.0186,0.0187,0.0187,0,0.0325,0.0392,0.0458,0.0479,0.054,0.0576,0.0608,0.0633,0.0672,0.0679,0.0706,0.0649,0.0639,0.0537,0.0407,0.0399,0.0295,0.027,0.0157,0.0153,0.015,0.0145,0.0202,0.0202,0.0202,0.0202,0.0203,0,0.0366,0.0418,0.0484,0.0523,0.0613,0.0631,0.0719,0.0736,0.0774,0.0838,0.0778,0.08,0.0657,0.0576,0.0443,0.0294,0.0321,0.0169,0.0139,0.0168,0.0166,0.018,0.0178,0.02,0.0201,0.0201,0.0201,0,0.04,0.0434,0.0521,0.06,0.0635,0.0703,0.0805,0.0863,0.0887,0.0968,0.0979,0.0923,0.0821,0.0656,0.0488,0.0355,0.0208,0.0142,0.0178,0.0153,0.0071,0.0073,0.003,0.0029,0.0027,0.0026,0.0025,0,0.0427,0.0474,0.0587,0.0649,0.0695,0.0795,0.0867,0.0919,0.0987,0.1045,0.1088,0.1014,0.0968,0.0695,0.045,0.0213,0.0181,0.0072,0.0059,0.008,0.0055,0.0059,0.0063,0.0074,0.0073,0.0073,0.0072,0,0.0485,0.0524,0.0603,0.0727,0.082,0.0926,0.1032,0.1103,0.117,0.1224,0.1265,0.1229,0.0984,0.0741,0.0408,0.0247,0.0113,0.0054,0.0078,0.0109,0.0115,0.0092,0.0096,0.0068,0.0069,0.0069,0.0069,0.0069,0.0541,0.0605,0.0706,0.0825,0.0929,0.105,0.1136,0.1232,0.1338,0.142,0.1382,0.1327,0.1065,0.0636,0.0356,0.0067,0.0084,-0.0015,-0.001,-0.0006,0.0005,0.0007,-0.0058,-0.0058,-0.0058,-0.0059,-0.0059,0,0.062,0.0689,0.0795,0.0935,0.104,0.109,0.1242,0.1312,0.1426,0.1483,0.1499,0.124,0.0975,0.0671,0.0247,-0.0008,-0.0014,-0.0093,-0.0035,-0.0029,-0.0024,-0.0012,-0.0081,-0.0082,-0.0083,-0.0083,0,0,0.0666,0.0779,0.0827,0.1006,0.1098,0.1231,0.1316,0.141,0.1473,0.1506,0.1472,0.142,0.1059,0.0748,0.0407,0.0164,0.0125,0.0112,0.0158,0.0272,0.028,0.0048,0.0076,0,0,0,0,0]}],[{"header":{"parameterUnit":"m.s-1","parameterCategory":2,"la1":30.2991,"la2":30.254,"lo1":-89.0895,"lo2":-89.0444,"dy":0.0017,"dx":0.0017,"nx":28,"ny":28,"refTime":"2024-03-28T03:00:00:Z","depth":"4","parameterNumber":2,"parameterNumberName":"U-component_of_CURRENTS"},"data":[0,0,0,0,0,0,0,0,0,0,0,0,0,0,0,0,0,0,0,0,0,0,0,0,0,0,0,0,0,0,0,0,0,0,0,0,0,0,0,0,0,0,0,0,0,0,0,0,0,0,0,0,0,0,0,0,0,0,0.1495,0.1495,0,0.1544,0.1545,0.1545,0.1588,0.1589,0.1589,0.159,0.1649,0.165,0.1651,0,0,0,0,0,0,0,0,0,0,0,0,0,0.1439,0.144,0.1495,0.1495,0.1496,0.1544,0.1545,0.1545,0.1588,0.1589,0.1589,0.159,0.1649,0.165,0.1651,0,0,0,0,0,0,0,0,0,0,0,0,0,0.1472,0.144,0.1494,0.1524,0.1528,0.1544,0.1545,0.1545,0.1588,0.1589,0.159,0.159,0.1649,0.165,0.1651,0.1641,0,0,0.1656,0.1657,0,0,0,0,0,0,0,0,0.147,0.1474,0.1519,0.1522,0.1526,0.1562,0.1547,0.1579,0.1587,0.1563,0.159,0.1591,0.1621,0.1625,0.163,0.1644,0.1647,0.1656,0.1657,0.1658,0.1658,0,0,0,0,0,0,0,0.1468,0.1472,0.1513,0.152,0.1524,0.1536,0.1542,0.1553,0.1585,0.1565,0.1569,0.1577,0.1623,0.1628,0.1632,0.1648,0.1656,0.1657,0.1658,0.1659,0.1746,0.1747,0,0,0,0,0,0,0.1464,0.1469,0.1511,0.1514,0.1502,0.1537,0.1543,0.1548,0.1585,0.1592,0.1576,0.1579,0.1625,0.163,0.1634,0.1701,0.1658,0.1659,0.166,0.1744,0.1746,0.1747,0,0,0,0,0,0,0.1462,0.1467,0.1509,0.1494,0.1501,0.1537,0.1543,0.1549,0.1586,0.1593,0.16,0.1611,0.1626,0.1632,0.1674,0.1701,0.166,0.1661,0.1743,0.1745,0.1747,0.1786,0,0,0,0,0,0,0.146,0.1466,0.1485,0.1494,0.1502,0.1537,0.1542,0.1549,0.1588,0.1593,0.1625,0.163,0.1627,0.1671,0.1675,0.1702,0.1662,0.1741,0.1743,0.1746,0.1783,0.179,0.1795,0,0,0,0,0,0.1458,0.1473,0.1485,0.1492,0.1521,0.1538,0.1544,0.157,0.159,0.1608,0.1635,0.163,0.1691,0.1674,0.1678,0.1706,0.1739,0.1743,0.1746,0.1781,0.1788,0.1795,0,0,0,0,0,0,0.146,0.1479,0.1493,0.1514,0.1535,0.1547,0.1572,0.1588,0.1623,0.164,0.1646,0.1653,0.17,0.1699,0.168,0.174,0.1715,0.1719,0.174,0.1748,0.1753,0.1757,0.1663,0,0,0,0,0,0.1468,0.1487,0.1504,0.1526,0.1539,0.1562,0.1581,0.1598,0.1622,0.164,0.1662,0.1688,0.1709,0.1727,0.1744,0.1775,0.1777,0.1797,0.1803,0.1808,0.1815,0.1843,0.1852,0.1758,0.1758,0.1758,0,0,0.1476,0.149,0.1503,0.1529,0.155,0.1569,0.1576,0.1612,0.1637,0.164,0.1694,0.1711,0.1724,0.176,0.1781,0.1767,0.1837,0.1812,0.1816,0.1821,0.1847,0.1856,0.1864,0.176,0.176,0.1759,0,0,0.1487,0.1515,0.1531,0.155,0.1586,0.1598,0.1616,0.1646,0.1674,0.1716,0.1729,0.1767,0.1799,0.1814,0.1823,0.1872,0.1868,0.1883,0.1915,0.1942,0.195,0.1957,0.197,0.1977,0.1884,0.1884,0.1885,0,0.15,0.1518,0.154,0.1559,0.1581,0.1614,0.1636,0.1665,0.1708,0.1733,0.1743,0.1808,0.1822,0.1863,0.1884,0.1886,0.1897,0.1884,0.1949,0.1956,0.1962,0.1974,0.1982,0.1887,0.1887,0.1886,0.1886,0,0.1509,0.1539,0.1553,0.1587,0.1613,0.1641,0.1676,0.1717,0.1756,0.1779,0.1842,0.1865,0.1905,0.1915,0.1917,0.1972,0.1964,0.1953,0.1928,0.1974,0.1984,0.1991,0.189,0.1889,0.1889,0.1888,0,0,0.1497,0.1549,0.1558,0.1582,0.1633,0.1652,0.1705,0.1752,0.1798,0.1843,0.1896,0.1939,0.1964,0.1978,0.199,0.2014,0.2069,0.201,0.201,0.2018,0.2128,0.1992,0.1987,0.2073,0.2074,0.2076,0.2115,0,0.1502,0.1539,0.1566,0.1614,0.1637,0.1686,0.1731,0.1783,0.1835,0.1896,0.1932,0.199,0.1984,0.2021,0.2045,0.2073,0.2092,0.2059,0.2087,0.2088,0.1957,0.1992,0.2081,0.2121,0.2123,0.2124,0.2125,0,0.1497,0.1526,0.1569,0.1633,0.165,0.169,0.1775,0.1821,0.1905,0.1949,0.2008,0.2043,0.2105,0.2089,0.215,0.2134,0.2139,0.2143,0.2145,0.2009,0.1966,0.2067,0.2138,0.2137,0.2136,0.2135,0.2134,0,0.1466,0.1527,0.1565,0.1586,0.1661,0.1705,0.1759,0.1844,0.1894,0.1999,0.2048,0.2112,0.2169,0.2188,0.2207,0.2195,0.2255,0.2234,0.2108,0.2098,0.2191,0.2183,0.2263,0.2263,0.2263,0.2263,0.2263,0,0.1443,0.1478,0.1563,0.1581,0.1642,0.1706,0.1783,0.1848,0.1945,0.2001,0.2084,0.2131,0.2202,0.2238,0.2234,0.2192,0.2278,0.2117,0.21,0.2206,0.22,0.2196,0.2187,0.2264,0.2264,0.2264,0.2263,0,0.1391,0.1449,0.1496,0.1589,0.1627,0.1675,0.1789,0.183,0.1948,0.2028,0.2068,0.2175,0.2226,0.2258,0.2298,0.2219,0.2196,0.2155,0.2271,0.226,0.2016,0.2009,0.2019,0.2015,0.2011,0.2008,0.2005,0,0.136,0.1379,0.1487,0.1519,0.1568,0.1651,0.1696,0.182,0.1862,0.2029,0.2047,0.2156,0.2205,0.2149,0.2196,0.2167,0.2134,0.21,0.2047,0.2008,0.1992,0.1992,0.199,0.1999,0.1998,0.1997,0.1997,0,0.1286,0.134,0.1377,0.1453,0.1512,0.1562,0.1646,0.1672,0.1808,0.193,0.1981,0.2005,0.2056,0.2068,0.2059,0.2033,0.2111,0.206,0.2067,0.2017,0.1984,0.1972,0.1975,0.1983,0.1985,0.1987,0.1987,0,0.1228,0.1244,0.1306,0.136,0.1426,0.145,0.1511,0.1562,0.1628,0.1812,0.1826,0.1938,0.2047,0.1999,0.1992,0.1957,0.192,0.1836,0.1854,0.1869,0.1796,0.1731,0.164,0,0,0,0,0,0.1158,0.1165,0.1204,0.1253,0.131,0.1358,0.1456,0.1518,0.166,0.1648,0.1736,0.1774,0.1788,0.1842,0.1772,0.191,0.1918,0.1818,0.1828,0.1911,0.1926,0.1852,0,0,0,0,0,0,0.1108,0.1141,0.1163,0.1143,0.1162,0.1214,0.1277,0.1377,0.1379,0.1533,0.155,0.1658,0.1694,0.181,0.1738,0.175,0.1715,0.1886,0.188,0.1903,0.1916,0.1928,0.1857,0,0,0,0,0]},{"header":{"parameterUnit":"m.s-1","parameterCategory":2,"la1":30.2991,"la2":30.254,"lo1":-89.0895,"lo2":-89.0444,"dy":0.0017,"dx":0.0017,"nx":28,"ny":28,"refTime":"2024-03-28T03:00:00:Z","depth":"4","parameterNumber":3,"parameterNumberName":"V-component_of_CURRENTS"},"data":[0,0,0,0,0,0,0,0,0,0,0,0,0,0,0,0,0,0,0,0,0,0,0,0,0,0,0,0,0,0,0,0,0,0,0,0,0,0,0,0,0,0,0,0,0,0,0,0,0,0,0,0,0,0,0,0,0,0,0.0145,0.0145,0,0.0125,0.0125,0.0125,0.0117,0.0117,0.0117,0.0117,0.0089,0.0088,0.0087,0,0,0,0,0,0,0,0,0,0,0,0,0,0.0138,0.0138,0.0145,0.0145,0.0145,0.0125,0.0125,0.0125,0.0117,0.0117,0.0117,0.0117,0.0089,0.0088,0.0087,0,0,0,0,0,0,0,0,0,0,0,0,0,0.0131,0.0138,0.0145,0.0139,0.0138,0.0125,0.0125,0.0124,0.0117,0.0117,0.0117,0.0118,0.009,0.0088,0.0087,0.0076,0,0,0.0083,0.0083,0,0,0,0,0,0,0,0,0.0132,0.0131,0.014,0.014,0.0139,0.0124,0.0112,0.0108,0.0117,0.0124,0.0117,0.0118,0.01,0.0098,0.0093,0.0074,0.0073,0.0083,0.0082,0.0082,0.0081,0,0,0,0,0,0,0,0.0132,0.0132,0.0137,0.014,0.0139,0.0124,0.0124,0.0111,0.0111,0.0124,0.0123,0.0122,0.01,0.0095,0.0093,0.0073,0.0083,0.0082,0.0081,0.0081,0.0055,0.0055,0,0,0,0,0,0,0.0138,0.0133,0.0137,0.0136,0.0136,0.0124,0.0124,0.0128,0.0111,0.0109,0.0122,0.0122,0.0097,0.0094,0.0091,0.0094,0.0082,0.008,0.008,0.0055,0.0055,0.0055,0,0,0,0,0,0,0.0138,0.0139,0.0138,0.0134,0.0133,0.0125,0.0129,0.0128,0.0128,0.011,0.0108,0.0125,0.0097,0.0093,0.0086,0.0092,0.008,0.0079,0.0055,0.0055,0.0055,0.0087,0,0,0,0,0,0,0.0138,0.0139,0.0143,0.0135,0.0133,0.0137,0.0129,0.0127,0.0127,0.0127,0.0111,0.0109,0.0097,0.0088,0.0085,0.009,0.0078,0.0055,0.0055,0.0055,0.0086,0.0088,0.0091,0,0,0,0,0,0.0138,0.0142,0.0144,0.0144,0.014,0.0137,0.0135,0.0129,0.0127,0.0129,0.0119,0.0109,0.0087,0.0088,0.0084,0.0088,0.0054,0.0055,0.0055,0.0085,0.0088,0.009,0,0,0,0,0,0,0.0136,0.0142,0.0143,0.0148,0.0147,0.0136,0.0136,0.0133,0.0126,0.0126,0.011,0.0107,0.0102,0.009,0.0091,0.0081,0.0069,0.0069,0.0093,0.0096,0.0098,0.011,0.0077,0,0,0,0,0,0.014,0.0148,0.0147,0.0151,0.0153,0.0146,0.0144,0.0141,0.0134,0.0131,0.0122,0.0109,0.0098,0.0094,0.0082,0.0077,0.0053,0.0076,0.0079,0.0081,0.0087,0.0053,0.0053,0.0056,0.0056,0.0056,0,0,0.0139,0.0144,0.0147,0.0152,0.015,0.0158,0.0145,0.0146,0.0152,0.0128,0.0133,0.0116,0.0098,0.0093,0.009,0.0085,0.0066,0.0081,0.0083,0.0088,0.0054,0.0053,0.0053,0.0056,0.0056,0.0056,0,0,0.0144,0.0148,0.0159,0.0163,0.0166,0.0164,0.0168,0.0164,0.0163,0.0162,0.0146,0.0135,0.0121,0.0109,0.0101,0.0107,0.0078,0.0103,0.0125,0.0092,0.0092,0.0091,0.0054,0.005,0.0105,0.0105,0.0106,0,0.0142,0.016,0.016,0.0173,0.0181,0.0172,0.0187,0.0182,0.0175,0.0176,0.0169,0.0144,0.0129,0.012,0.0125,0.0113,0.0087,0.0118,0.0095,0.0094,0.0093,0.0055,0.005,0.0107,0.0107,0.0107,0.0107,0,0.0158,0.0174,0.018,0.02,0.0206,0.0216,0.0216,0.0219,0.0216,0.021,0.0201,0.0175,0.0164,0.0153,0.0143,0.013,0.0112,0.0101,0.009,0.0095,0.0054,0.0048,0.0109,0.0109,0.0108,0.0108,0,0,0.0153,0.0187,0.0191,0.0213,0.0225,0.0236,0.0245,0.0253,0.0264,0.0245,0.025,0.0225,0.0209,0.0199,0.0176,0.0149,0.0116,0.0127,0.0125,0.0093,0.0038,0.0035,0.0027,0.01,0.01,0.0099,0.001,0,0.0169,0.0207,0.0217,0.0254,0.0277,0.0279,0.0293,0.0296,0.0293,0.0292,0.0258,0.0254,0.0226,0.0224,0.019,0.0139,0.0103,0.0141,0.0036,0.0033,0.0031,0.0022,0.0097,0.0006,0.0004,0.0003,0.0003,0,0.0185,0.0212,0.0256,0.0298,0.0308,0.033,0.0358,0.0369,0.0359,0.0354,0.0334,0.0306,0.0271,0.0245,0.015,0.0175,0.0113,0.0064,0.0059,0.0044,0.0019,0.0001,-0.0008,-0.0007,-0.0007,-0.0006,-0.0005,0,0.0197,0.0241,0.0283,0.0298,0.0338,0.0362,0.0384,0.0391,0.0413,0.0399,0.0405,0.0346,0.0328,0.024,0.0145,0.0147,0.003,0.0018,-0.0051,-0.0052,-0.0037,-0.0035,-0.0056,-0.0056,-0.0056,-0.0056,-0.0055,0,0.0215,0.0249,0.0299,0.0324,0.0383,0.0396,0.0448,0.0457,0.047,0.0501,0.0445,0.0443,0.0327,0.0249,0.0151,0.0034,0.0031,-0.0049,-0.0074,-0.0023,-0.0018,-0.0042,-0.0039,-0.0059,-0.0058,-0.0058,-0.0057,0,0.023,0.0257,0.0313,0.0369,0.0396,0.0442,0.0511,0.054,0.0545,0.0581,0.0582,0.0515,0.0413,0.0283,0.0136,0.0053,-0.0066,-0.011,-0.0049,-0.0069,-0.0131,-0.0126,-0.0195,-0.0196,-0.0196,-0.0197,-0.0197,0,0.0243,0.0273,0.0356,0.0402,0.0438,0.0506,0.0554,0.0584,0.0621,0.0627,0.0645,0.0558,0.0497,0.0287,0.0138,-0.0064,-0.009,-0.0158,-0.0142,-0.0127,-0.0145,-0.0138,-0.0132,-0.0199,-0.0199,-0.0199,-0.0199,0,0.0272,0.0303,0.0357,0.0449,0.0517,0.0589,0.066,0.0692,0.0724,0.0724,0.0707,0.0598,0.0475,0.0299,0.0138,-0.0005,-0.0116,-0.0165,-0.0165,-0.015,-0.0132,-0.0148,-0.0141,-0.0202,-0.0201,-0.0201,-0.0201,0,0.0306,0.0347,0.042,0.0503,0.0582,0.0655,0.0688,0.0734,0.0769,0.0775,0.0764,0.063,0.0551,0.0329,0.0181,0.0037,0.0001,-0.0043,-0.0049,-0.0048,0.002,0.0066,0.0036,0,0,0,0,0,0.0342,0.0392,0.0465,0.0556,0.0627,0.0678,0.0753,0.0774,0.0802,0.0805,0.0792,0.0681,0.0466,0.0364,0.022,0.0151,-0.0039,-0.0024,-0.0095,-0.0215,-0.0212,-0.0157,0,0,0,0,0,0,0.037,0.0445,0.0473,0.0579,0.0643,0.0729,0.0779,0.0798,0.0801,0.0803,0.0691,0.0644,0.0428,0.0552,0.0218,0.0171,0.0106,-0.0125,-0.0129,-0.0216,-0.0214,-0.0212,-0.0154,0,0,0,0,0]}]]